Back to catalog

YAOGAN-30 M

AliveMilitaryVLEO
NORAD 43172·PAYLOAD·🇨🇳 China

Launched Jan 25, 2018 from Xichang Satellite Launch Center

Loading…

Next Passes (next 24 hours)

TLE

FreshSource: Space-Track

Epoch: Sep 14, 2026, 13:50 UTC

1 43172U 18011D   26257.57706211  .00001978  00000-0  14594-3 0  9990
2 43172  34.9978 326.0057 0001490 174.8844 185.1879 15.03068478471544

Track YAOGAN-30 M in real time with AllMySat

Download on the App Store